Location: Barrio Las Umbrías
(40.4173°N, 4.8685°W)
Time: 11:54:04
(UTC+00:00)

Cosmos 44 - Pass Details

Date: 17 August 2022
Orbit: 594 x 766 km, 65.1° (Epoch: 27 September)

Event Time Altitude Azimuth Distance (km) Brightness Sun altitude
Rises 21:35:23 0° 331° (NNW) 2,851 7.7 -23.7°
Reaches altitude 10° 21:37:38 10° 335° (NNW) 1,955 6.6 -24.0°
Enters shadow 21:41:42 60° 35° (NE) 706 3.3 -24.6°
